Find OneWeb SL0357

NORAD ID: 49219 Int'l Des: 2021-083 Owner: ONEWEBN Country: UK Constellation: oneweb operational
LEOCIRCULARPOLARONEWEB_TYPE

Live Position

Loading 3D Globe...

About OneWeb SL0357

Description loading...

Upcoming Passes

Passes for default location (London). Set your location on the main map for personalized predictions.

Altitude History

Loading altitude history...

Two-Line Element Set

1 49219U 21083AK 26106.76689657 .00000006 00000-0 -16452-4 0 9997
2 49219 87.9139 286.6921 0001827 87.3099 272.8244 13.20772484228708
Epoch: Apr 16, 2026 • Age: 12 hours

Current Status

Altitude 1189.5 km
Velocity 7.26 km/s
Sub-Earth Point 53.34°N, 169.12°E
Launch Date Sep 14, 2021
Age 4.5 years
Type internet

Technical Details

Classification Payload
Mass 148.00 kg
Dry Mass 140.00 kg
Total Mass 148.00 kg
Length 1.30 m
Diameter 1.00 m
Span 5.00 m
Shape Trapezoid+2 pan
Manufacturer ONEWUS
Bus Type ARROW
Phase Status In Orbit
Owner/State ONEWEBN/UK

Most Searched